• In Hungary
  • List of Countries
  • For 7 days
  • Water Temperature
  • Satellite Maps
  • Weather Map
  • News
  • Weather Widgets
  • user-avatar
    Login

    Hourly Weather Czekanka

    Today, 22 September, Saturday

    Time Temperature Precipitation Wind Pressure Humidity
    00:00 +19°C° 0.1 mm 6 mps 732 mmHg 65%
    01:00 +17°C° 0 mm 6 mps 732 mmHg 70%
    02:00 +16°C° 1.1 mm 6 mps 733 mmHg 74%
    03:00 +14°C° 1.1 mm 6 mps 733 mmHg 78%
    04:00 +11°C° 1.1 mm 6 mps 734 mmHg 82%
    05:00 +12°C° 0.4 mm 5 mps 735 mmHg 80%
    06:00 +12°C° 0.4 mm 4 mps 736 mmHg 79%
    07:00 +12°C° 0.4 mm 3 mps 736 mmHg 78%
    08:00 +13°C° 0 mm 3 mps 737 mmHg 71%
    09:00 +14°C° 0 mm 4 mps 737 mmHg 64%
    10:00 +14°C° 0 mm 4 mps 737 mmHg 57%
    11:00 +15°C° 0 mm 5 mps 737 mmHg 52%
    12:00 +16°C° 0 mm 5 mps 737 mmHg 47%
    13:00 +17°C° 0 mm 5 mps 736 mmHg 42%
    14:00 +17°C° 0 mm 5 mps 736 mmHg 43%
    15:00 +17°C° 0 mm 5 mps 736 mmHg 44%
    16:00 +16°C° 0 mm 5 mps 736 mmHg 45%
    17:00 +15°C° 0 mm 4 mps 736 mmHg 49%
    18:00 +14°C° 0 mm 3 mps 736 mmHg 52%
    19:00 +14°C° 0 mm 2 mps 736 mmHg 55%
    20:00 +14°C° 0 mm 2 mps 736 mmHg 56%
    21:00 +13°C° 0 mm 3 mps 736 mmHg 56%
    22:00 +13°C° 0 mm 3 mps 737 mmHg 57%
    23:00 +13°C° 0.1 mm 3 mps 736 mmHg 59%

    Tomorrow, 23 September, Sunday

    Time Temperature Precipitation Wind Pressure Humidity
    00:00 +12°C° 0.1 mm 3 mps 736 mmHg 61%
    01:00 +12°C° 0.1 mm 3 mps 736 mmHg 63%
    02:00 +12°C° 0 mm 3 mps 736 mmHg 64%
    03:00 +12°C° 0 mm 3 mps 736 mmHg 66%
    04:00 +11°C° 0 mm 3 mps 736 mmHg 67%
    05:00 +11°C° 0 mm 4 mps 736 mmHg 68%
    06:00 +12°C° 0 mm 4 mps 736 mmHg 68%
    07:00 +12°C° 0 mm 4 mps 735 mmHg 68%
    08:00 +13°C° 0 mm 4 mps 735 mmHg 64%
    09:00 +14°C° 0 mm 5 mps 735 mmHg 60%
    10:00 +15°C° 0 mm 5 mps 735 mmHg 56%
    11:00 +15°C° 0 mm 5 mps 735 mmHg 57%
    12:00 +15°C° 0 mm 5 mps 735 mmHg 59%
    13:00 +14°C° 0 mm 5 mps 734 mmHg 61%
    14:00 +14°C° 0.1 mm 5 mps 734 mmHg 65%
    15:00 +14°C° 0.1 mm 4 mps 733 mmHg 69%
    16:00 +13°C° 0.1 mm 4 mps 732 mmHg 74%
    17:00 +13°C° 0.5 mm 4 mps 731 mmHg 77%
    18:00 +13°C° 0.5 mm 4 mps 730 mmHg 80%
    19:00 +12°C° 0.5 mm 4 mps 729 mmHg 84%
    20:00 +13°C° 0.2 mm 5 mps 728 mmHg 81%
    21:00 +14°C° 0.2 mm 7 mps 727 mmHg 79%
    22:00 +13°C° 0.2 mm 8 mps 725 mmHg 76%
    23:00 +15°C° 1.5 mm 8 mps 725 mmHg 78%

    Day after tomorrow, 24 September, Monday

    Time Temperature Precipitation Wind Pressure Humidity
    00:00 +16°C° 1.5 mm 8 mps 724 mmHg 80%
    01:00 +16°C° 1.5 mm 9 mps 723 mmHg 82%
    02:00 +13°C° 1.1 mm 10 mps 724 mmHg 82%
    03:00 +11°C° 1.1 mm 11 mps 726 mmHg 82%
    04:00 +8°C° 1.1 mm 12 mps 727 mmHg 82%
    05:00 +7°C° 0.1 mm 11 mps 729 mmHg 81%
    06:00 +7°C° 0.1 mm 10 mps 731 mmHg 81%
    07:00 +7°C° 0.1 mm 9 mps 733 mmHg 81%
    08:00 +7°C° 0.1 mm 9 mps 734 mmHg 76%
    09:00 +8°C° 0.1 mm 9 mps 734 mmHg 72%
    10:00 +8°C° 0.1 mm 10 mps 735 mmHg 67%
    11:00 +9°C° 0.1 mm 10 mps 736 mmHg 62%
    12:00 +9°C° 0.1 mm 10 mps 737 mmHg 56%
    13:00 +11°C° 0.1 mm 10 mps 737 mmHg 51%
    14:00 +11°C° 0.1 mm 10 mps 738 mmHg 51%
    15:00 +10°C° 0.1 mm 9 mps 738 mmHg 51%
    16:00 +10°C° 0.1 mm 9 mps 738 mmHg 52%
    17:00 +9°C° 0 mm 8 mps 739 mmHg 55%
    18:00 +8°C° 0 mm 7 mps 739 mmHg 57%
    19:00 +7°C° 0 mm 6 mps 740 mmHg 60%
    20:00 +7°C° 0 mm 6 mps 740 mmHg 62%
    21:00 +7°C° 0 mm 5 mps 741 mmHg 63%
    22:00 +6°C° 0 mm 5 mps 741 mmHg 65%
    23:00 +6°C° 0 mm 5 mps 742 mmHg 66%

    25 September, Tuesday

    Time Temperature Precipitation Wind Pressure Humidity
    00:00 +6°C° 0 mm 5 mps 742 mmHg 68%
    01:00 +5°C° 0 mm 4 mps 743 mmHg 70%
    02:00 +5°C° 0 mm 4 mps 743 mmHg 71%
    03:00 +4°C° 0 mm 4 mps 744 mmHg 72%
    04:00 +4°C° 0 mm 4 mps 744 mmHg 74%
    05:00 +4°C° 0 mm 4 mps 744 mmHg 74%
    06:00 +4°C° 0 mm 4 mps 745 mmHg 74%
    07:00 +5°C° 0 mm 5 mps 746 mmHg 74%
    08:00 +6°C° 0 mm 5 mps 746 mmHg 66%
    09:00 +8°C° 0 mm 5 mps 747 mmHg 58%
    10:00 +9°C° 0 mm 5 mps 747 mmHg 49%
    11:00 +10°C° 0 mm 5 mps 747 mmHg 46%
    12:00 +10°C° 0 mm 5 mps 748 mmHg 43%
    13:00 +11°C° 0 mm 6 mps 748 mmHg 40%
    14:00 +12°C° 0 mm 5 mps 748 mmHg 41%
    15:00 +12°C° 0 mm 5 mps 748 mmHg 41%
    16:00 +10°C° 0 mm 5 mps 748 mmHg 42%
    17:00 +10°C° 0 mm 4 mps 748 mmHg 45%
    18:00 +10°C° 0 mm 3 mps 749 mmHg 48%
    19:00 +9°C° 0 mm 2 mps 749 mmHg 52%
    20:00 +8°C° 0 mm 2 mps 749 mmHg 54%
    21:00 +7°C° 0 mm 2 mps 750 mmHg 57%
    22:00 +6°C° 0 mm 2 mps 750 mmHg 60%
    23:00 +6°C° 0 mm 2 mps 750 mmHg 61%

    26 September, Wednesday

    Time Temperature Precipitation Wind Pressure Humidity
    00:00 +6°C° 0 mm 2 mps 750 mmHg 63%
    01:00 +5°C° 0 mm 2 mps 750 mmHg 65%
    02:00 +5°C° 0 mm 2 mps 750 mmHg 66%
    03:00 +5°C° 0 mm 2 mps 750 mmHg 68%
    04:00 +5°C° 0 mm 2 mps 749 mmHg 69%
    05:00 +4°C° 0 mm 3 mps 749 mmHg 67%
    06:00 +5°C° 0 mm 3 mps 749 mmHg 64%
    07:00 +5°C° 0 mm 3 mps 749 mmHg 62%
    08:00 +7°C° 0 mm 4 mps 748 mmHg 55%
    09:00 +10°C° 0 mm 4 mps 748 mmHg 49%
    10:00 +12°C° 0 mm 5 mps 748 mmHg 42%
    11:00 +13°C° 0 mm 5 mps 747 mmHg 40%
    12:00 +13°C° 0 mm 5 mps 747 mmHg 38%
    13:00 +14°C° 0 mm 6 mps 746 mmHg 37%
    14:00 +14°C° 0 mm 6 mps 745 mmHg 38%
    15:00 +14°C° 0 mm 5 mps 745 mmHg 39%
    16:00 +14°C° 0 mm 5 mps 744 mmHg 40%
    17:00 +13°C° 0 mm 5 mps 744 mmHg 43%
    18:00 +12°C° 0 mm 5 mps 744 mmHg 46%
    19:00 +11°C° 0 mm 4 mps 744 mmHg 49%
    20:00 +10°C° 0 mm 4 mps 744 mmHg 50%
    21:00 +10°C° 0 mm 4 mps 744 mmHg 51%
    22:00 +10°C° 0 mm 4 mps 744 mmHg 52%
    23:00 +8°C° 0 mm 4 mps 743 mmHg 53%

    27 September, Thursday

    Time Temperature Precipitation Wind Pressure Humidity
    00:00 +8°C° 0 mm 4 mps 743 mmHg 54%
    01:00 +7°C° 0 mm 4 mps 743 mmHg 54%
    02:00 +7°C° 0 mm 4 mps 742 mmHg 55%
    03:00 +7°C° 0 mm 4 mps 742 mmHg 55%
    04:00 +7°C° 0 mm 4 mps 742 mmHg 56%
    05:00 +7°C° 0 mm 4 mps 741 mmHg 56%
    06:00 +8°C° 0 mm 4 mps 741 mmHg 55%
    07:00 +8°C° 0 mm 4 mps 741 mmHg 55%
    08:00 +10°C° 0 mm 5 mps 740 mmHg 50%
    09:00 +13°C° 0 mm 5 mps 740 mmHg 46%
    10:00 +15°C° 0 mm 5 mps 740 mmHg 41%
    11:00 +16°C° 0 mm 5 mps 739 mmHg 39%
    12:00 +19°C° 0 mm 6 mps 739 mmHg 37%
    13:00 +20°C° 0 mm 6 mps 738 mmHg 34%
    14:00 +19°C° 0 mm 5 mps 738 mmHg 36%
    15:00 +19°C° 0 mm 5 mps 737 mmHg 38%
    16:00 +19°C° 0 mm 5 mps 736 mmHg 40%
    17:00 +17°C° 0 mm 5 mps 736 mmHg 44%
    18:00 +15°C° 0 mm 5 mps 736 mmHg 48%
    19:00 +14°C° 0 mm 4 mps 736 mmHg 52%
    20:00 +13°C° 0 mm 4 mps 736 mmHg 53%
    21:00 +13°C° 0 mm 5 mps 736 mmHg 54%
    22:00 +13°C° 0 mm 5 mps 735 mmHg 55%
    23:00 +12°C° 0 mm 4 mps 735 mmHg 56%
    Show more